User: anonymous   Login
Location: Arborea
(39.7744°N, 8.5819°E)
Time: 13:35:57
(UTC+00:00)
Language:

Cosmos 1000 Rocket - Orbit

View from above orbital plane
View from above orbital plane
View from above satellite
View from above satellite

Ground track
Ground track

The orbit data is extracted from the following two-line orbital elements,

1 10777U 78034B   22272.43620078 -.00000010  00000-0 -25865-4 0  9992
2 10777  82.9417 234.7895 0025789 188.0711 292.4325 13.77475145236091
Epoch (UTC): 29 September 2022 10:28:07
Eccentricity: 0.0025789
inclination: 82.9417°
perigee height: 954 km
apogee height: 992 km
right ascension of ascending node: 234.7895°
argument of perigee: 188.0711°
revolutions per day: 13.77475145
mean anomaly at epoch: 292.4325°
orbit number at epoch: 23609

The dashed part of the orbit path shows where the satellite is in the earth's shadow,  

DLR